Location: Home
(42.5358°N, 72.7383°W)
Time: 12:25:07
(UTC-05:00)

Tiros 1 - Pass Details

Date: 05 December 2021
Orbit: 629 x 664 km, 48.4° (Epoch: 26 January)

Event Time Altitude Azimuth Distance (km) Brightness Sun altitude
Rises 20:46:37 0° 285° (WNW) 2,934 11.2 -48.6°
Enters shadow 20:46:48 - 286° (WNW) 2,868 11.1 -48.6°
Reaches altitude 10° 20:49:03 10° 293° (WNW) 2,031 - -49.0°
Maximum altitude 20:53:29 40° 4° (N) 946 - -49.8°
Drops below altitude 10° 20:57:57 10° 74° (ENE) 2,051 - -50.6°
Sets 21:00:25 0° 82° (E) 2,968 - -51.0°
